[ hide orbit diagram ]
For accurate long-term ephemerides, please instead use our Horizons system.This orbit viewer was implemented using two-body methods, and hence should not be used for determining accurate long-term trajectories (over several years or decades) or planetary encounter circumstances.
Orbital Elements at Epoch 2459000.5 (2020-May-31.0) TDB
Reference: JPL 22 (heliocentric ecliptic J2000)
Element | Value | Uncertainty (1-sigma) | Units |
e | .1613768690748728 | 3.9701e-08 | |
a | 3.087244304543392 | 2.2735e-08 | au |
q | 2.589034484606947 | 1.2435e-07 | au |
i | 2.550671573127394 | 4.1793e-06 | deg |
node | 119.3280053080034 | 0.00012892 | deg |
peri | 28.74563456734125 | 0.00013042 | deg |
M | 312.4846521306256 | 1.9974e-05 | deg |
tp | 2459262.008817209361 (2021-Feb-16.50881721) | 0.00011122 | TDB |
period | 1981.32137123738 5.42 | 2.1886e-05 5.992e-08 | d yr |
n | .1816969247019083 | 2.007e-09 | deg/d |
Q | 3.585454124479838 | 2.6403e-08 | au |
|
| | Orbit Determination Parameters
Additional Information
|
[ show covariance matrix ]
Physical Parameter Table
Parameter |
Symbol |
Value |
Units |
Sigma |
Reference |
Notes |
absolute magnitude |
H |
14.9 |
|
n/a |
MPO453507 |
|
diameter |
diameter |
5.213 |
km |
0.056 |
urn:nasa:pds:neowise_diameters_albedos::2.0[mainbelt] (http://adsabs.harvard.edu/abs/2011ApJ...741...68M) |
|
geometric albedo |
albedo |
0.078 |
|
0.021 |
urn:nasa:pds:neowise_diameters_albedos::2.0[mainbelt] (http://adsabs.harvard.edu/abs/2011ApJ...741...68M) |
|
|
105047 (2000 KG52) Discovered 2000-May-23 by LONEOS at Anderson Mesa |
Reference: 20051019/Numbers.arc | Last Updated: 2005-10-26 |
|
[ hide close-approach data ]
Close-Approach Data ...sorted by Date/Time (TDB)
|
Date/Time (TDB) |
Time Uncertainty (days_HH:MM) |
Body |
Nominal Distance (au) |
Minimum Distance (au) |
Maximum Distance (au) |
V-relative (km/s) |
V-infinity (km/s) |
JD (TDB) |
Time Uncertainty (minutes) |
Semi-major axis (km) |
Semi-minor axis (km) |
range-LOV angle (deg) |
N-sigma |
BP |
Orbit Ref. |
Reference |
Modified |
1915-May-27 08:45 |
00:04 |
Jupiter |
1.44744320615121 |
1.4474424024563 |
1.44744400983839 |
1.1066236252107 |
0.232906006417079 |
2420644.864614724 |
3.73473920840828 |
24490.3359834895 |
1315.96086225608 |
1.54246448045578 |
903407.257521249 |
T |
22 |
CATAB v2.0f-lin.ifort 2020-Dec-17 22:33:09 |
2020-Dec-17 22:33 |
1925-Mar-01 00:11 |
00:03 |
Jupiter |
1.88590052914743 |
1.88589818944429 |
1.88590286884756 |
2.38467361395653 |
2.18824124567243 |
2424210.507594914 |
3.253323418605 |
54.9209562114987 |
42.1439358042933 |
66.9063412788694 |
615509.257040769 |
T |
22 |
CATAB v2.0f-lin.ifort 2020-Dec-17 22:33:09 |
2020-Dec-17 22:33 |
1975-Oct-19 17:24 |
00:02 |
Jupiter |
1.65095661510659 |
1.65095532228821 |
1.65095790792272 |
1.90582182825879 |
1.61432889480719 |
2442705.224828081 |
1.61745243378034 |
92.7901195089567 |
51.9561089316547 |
-79.6117930114095 |
840390.714444973 |
T |
22 |
CATAB v2.0f-lin.ifort 2020-Dec-17 22:33:09 |
2020-Dec-17 22:33 |
1985-Jul-18 15:43 |
00:01 |
Jupiter |
1.56012599763938 |
1.5601253321518 |
1.5601266631258 |
1.34369170472749 |
0.848332950992455 |
2446265.155208007 |
1.20367042894977 |
334.93717769939 |
133.480248915503 |
20.6874611358351 |
1638221.67720437 |
T |
22 |
CATAB v2.0f-lin.ifort 2020-Dec-17 22:33:09 |
2020-Dec-17 22:33 |
2036-Feb-28 09:35 |
< 00:01 |
Jupiter |
1.98681781832347 |
1.98681718729474 |
1.98681844935207 |
3.45146108498074 |
3.32564899862962 |
2464751.899604578 |
0.730143043065844 |
40.4638765332123 |
23.0043102698526 |
83.1387421637673 |
2221854.26910902 |
T |
22 |
CATAB v2.0f-lin.ifort 2020-Dec-17 22:33:09 |
2020-Dec-17 22:33 |
2045-Nov-30 12:40 |
00:01 |
Jupiter |
1.44062000791335 |
1.44061952275154 |
1.44062049307518 |
1.07871240413097 |
n/a |
2468315.028045341 |
1.17089416738922 |
67.1995213824756 |
23.9873025328064 |
-87.1249411258789 |
8971634.42993197 |
F |
22 |
CATAB v2.0f-lin.ifort 2020-Dec-17 22:33:09 |
2020-Dec-17 22:33 |
2055-Sep-06 11:53 |
00:02 |
Jupiter |
1.91633450547656 |
1.9163333325167 |
1.91633567843576 |
2.53507266025485 |
2.35427071766572 |
2471881.994859757 |
1.5456974824209 |
52.2471683519814 |
30.1401518348112 |
89.4196477652195 |
1276848.3959216 |
T |
22 |
CATAB v2.0f-lin.ifort 2020-Dec-17 22:33:09 |
2020-Dec-17 22:33 |
2106-Apr-23 13:43 |
00:04 |
Jupiter |
1.61847747654143 |
1.6184755993282 |
1.61847935374969 |
1.76238199786263 |
1.43502605772 |
2490373.071698488 |
3.60898797431064 |
184.866253451852 |
88.7332044537663 |
-46.4551400289159 |
691953.19872725 |
T |
22 |
CATAB v2.0f-lin.ifort 2020-Dec-17 22:33:09 |
2020-Dec-17 22:33 |
2116-Jan-22 14:16 |
00:04 |
Jupiter |
1.58039989222863 |
1.58039782302082 |
1.58040196143007 |
1.41918453010336 |
0.970657316979059 |
2493934.094780390 |
3.96242983711372 |
539.184491112406 |
108.303160511044 |
24.3842307273481 |
1064227.72955655 |
T |
22 |
CATAB v2.0f-lin.ifort 2020-Dec-17 22:33:09 |
2020-Dec-17 22:33 |
2166-Sep-05 04:57 |
00:05 |
Jupiter |
1.95215181068776 |
1.95214832796475 |
1.95215529340833 |
3.25948878111909 |
3.12353704396998 |
2512422.706110720 |
5.33089621732876 |
141.265138111181 |
36.3138223817804 |
27.5637713047658 |
723773.702227536 |
T |
22 |
CATAB v2.0f-lin.ifort 2020-Dec-17 22:33:09 |
2020-Dec-17 22:33 |
2176-Jun-06 04:19 |
00:06 |
Jupiter |
1.43265565254145 |
1.43265519825445 |
1.43265610682851 |
1.05002350860975 |
n/a |
2515984.680165591 |
5.9809132053588 |
266.691678992954 |
22.6244224888633 |
89.7527785375772 |
9469791.08261197 |
F |
22 |
CATAB v2.0f-lin.ifort 2020-Dec-17 22:33:09 |
2020-Dec-17 22:33 |
2186-Mar-12 01:11 |
00:06 |
Jupiter |
1.94677082096583 |
1.94676649355237 |
1.94677514837233 |
2.69608168915216 |
2.52956012393471 |
2519550.549578664 |
6.17919889981048 |
127.720563445585 |
52.4353362210165 |
4.09569912145054 |
357648.624054157 |
T |
22 |
CATAB v2.0f-lin.ifort 2020-Dec-17 22:33:09 |
2020-Dec-17 22:33 |
|
|